| time (UTC) | temp F | wind direction | speed MPH | gust MPH | rain 1hr in | rain 24hr in | rain mn in | humidity % | barometer mb |
| 20260904154722 | 71 | 25 | 0.0 | 2.0 | 0.00 | 0.73 | 0.73 | 99 | 1017.5 |
| 20260904154216 | 71 | 251 | 2.0 | 2.0 | 0.00 | 0.73 | 0.73 | 99 | 1017.8 |
| 20260904153712 | 71 | 238 | 1.0 | 3.0 | 0.07 | 0.73 | 0.73 | 99 | 1017.7 |
| 20260904153207 | 71 | 315 | 1.0 | 4.0 | 0.07 | 0.73 | 0.73 | 99 | 1017.9 |
| 20260904152703 | 71 | 326 | 3.0 | 5.0 | 0.00 | 0.72 | 0.72 | 99 | 1017.9 |
| 20260904152159 | 72 | 336 | 1.0 | 3.0 | 0.00 | 0.72 | 0.72 | 99 | 1017.6 |
| 20260904151654 | 72 | 278 | 1.0 | 3.0 | 0.00 | 0.72 | 0.72 | 99 | 1017.5 |
| 20260904151152 | 72 | 311 | 0.0 | 5.0 | 0.00 | 0.72 | 0.72 | 99 | 1017.2 |
| 20260904150648 | 71 | 309 | 0.0 | 1.0 | 0.00 | 0.72 | 0.72 | 99 | 1016.8 |
| 20260904150144 | 72 | 7 | 0.0 | 0.0 | 0.00 | 0.72 | 0.72 | 99 | 1016.6 |
| 20260904145642 | 71 | 333 | 0.0 | 0.0 | 0.00 | 0.72 | 0.72 | 99 | 1016.8 |
| 20260904145137 | 72 | 329 | 0.0 | 0.0 | 0.00 | 0.72 | 0.72 | 99 | 1016.8 |
| 20260904144632 | 71 | 344 | 0.0 | 2.0 | 0.00 | 0.72 | 0.72 | 99 | 1016.7 |
| 20260904144128 | 70 | 351 | 0.0 | 2.0 | 0.00 | 0.72 | 0.72 | 99 | 1016.7 |
| 20260904143624 | 70 | 322 | 0.0 | 1.0 | 0.00 | 0.72 | 0.72 | 99 | 1016.7 |
| 20260904143120 | 70 | 351 | 0.0 | 1.0 | 0.00 | 0.72 | 0.72 | 99 | 1016.6 |
| 20260904142617 | 69 | 230 | 0.0 | 2.0 | 0.00 | 0.72 | 0.72 | 99 | 1016.5 |
| 20260904142112 | 70 | 240 | 0.0 | 1.0 | 0.00 | 0.72 | 0.72 | 99 | 1016.5 |
| 20260904141607 | 70 | 237 | 2.0 | 3.0 | 0.00 | 0.72 | 0.72 | 99 | 1016.4 |
| 20260904141103 | 70 | 79 | 1.0 | 2.0 | 0.00 | 0.72 | 0.72 | 99 | 1016.3 |
| 20260904140557 | 69 | 284 | 0.0 | 2.0 | 0.00 | 0.72 | 0.72 | 99 | 1016.4 |
| 20260904140052 | 69 | 118 | 0.0 | 1.0 | 0.00 | 0.72 | 0.72 | 99 | 1016.2 |
| 20260904135550 | 69 | 50 | 0.0 | 1.0 | 0.00 | 0.72 | 0.72 | 99 | 1016.3 |
| 20260904135047 | 69 | 252 | 1.0 | 2.0 | 0.00 | 0.72 | 0.72 | 99 | 1016.3 |
| 20260904134542 | 69 | 109 | 0.0 | 2.0 | 0.00 | 0.72 | 0.72 | 99 | 1016.3 |
| 20260904134036 | 69 | 253 | 0.0 | 2.0 | 0.00 | 0.72 | 0.72 | 99 | 1016.5 |
| 20260904133531 | 69 | 269 | 0.0 | 0.0 | 0.00 | 0.72 | 0.72 | 99 | 1016.6 |
| 20260904133028 | 69 | 110 | 1.0 | 3.0 | 0.00 | 0.72 | 0.72 | 99 | 1016.5 |
| 20260904132522 | 69 | 235 | 0.0 | 0.0 | 0.00 | 0.72 | 0.72 | 99 | 1016.5 |
| 20260904132021 | 69 | 230 | 0.0 | 1.0 | 0.00 | 0.72 | 0.72 | 99 | 1016.7 |
| 20260904131516 | 69 | 230 | 0.0 | 1.0 | 0.00 | 0.72 | 0.72 | 99 | 1016.5 |
| 20260904131012 | 69 | 75 | 0.0 | 1.0 | 0.00 | 0.72 | 0.72 | 99 | 1016.4 |
| 20260904130511 | 69 | 333 | 0.0 | 1.0 | 0.00 | 0.72 | 0.72 | 99 | 1016.4 |
| 20260904130006 | 69 | 93 | 1.0 | 2.0 | 0.00 | 0.72 | 0.72 | 99 | 1016.7 |
| 20260904125502 | 68 | 304 | 0.0 | 1.0 | 0.00 | 0.72 | 0.72 | 99 | 1016.6 |
| 20260904124956 | 68 | 6 | 0.0 | 1.0 | 0.00 | 0.72 | 0.72 | 99 | 1016.6 |
| 20260904124452 | 68 | 124 | 0.0 | 1.0 | 0.00 | 0.72 | 0.72 | 99 | 1016.6 |
| 20260904123948 | 68 | 353 | 0.0 | 1.0 | 0.00 | 0.72 | 0.72 | 99 | 1016.7 |
| 20260904123442 | 68 | 321 | 0.0 | 1.0 | 0.00 | 0.72 | 0.72 | 99 | 1016.7 |
| 20260904122938 | 67 | 297 | 0.0 | 1.0 | 0.00 | 0.72 | 0.72 | 99 | 1016.6 |
| 20260904122437 | 67 | 218 | 0.0 | 0.0 | 0.00 | 0.72 | 0.72 | 99 | 1016.8 |
| 20260904121931 | 66 | 231 | 0.0 | 2.0 | 0.00 | 0.72 | 0.72 | 99 | 1017.0 |
| 20260904121428 | 67 | 353 | 0.0 | 2.0 | 0.00 | 0.72 | 0.72 | 99 | 1017.0 |
| 20260904120919 | 66 | 217 | 0.0 | 1.0 | 0.00 | 0.72 | 0.72 | 99 | 1016.8 |
| 20260904120414 | 66 | 157 | 0.0 | 0.0 | 0.00 | 0.72 | 0.72 | 99 | 1016.6 |
| 20260904115910 | 66 | 309 | 0.0 | 1.0 | 0.00 | 0.72 | 0.72 | 99 | 1016.8 |
| 20260904115404 | 66 | 224 | 0.0 | 2.0 | 0.00 | 0.72 | 0.72 | 99 | 1017.0 |
| 20260904114858 | 66 | 343 | 0.0 | 1.0 | 0.00 | 0.72 | 0.72 | 99 | 1016.7 |
| 20260904114353 | 66 | 237 | 1.0 | 3.0 | 0.00 | 0.72 | 0.72 | 99 | 1016.7 |
| 20260904113849 | 66 | 230 | 1.0 | 2.0 | 0.00 | 0.72 | 0.72 | 99 | 1016.8 |
| 20260904113348 | 66 | 269 | 0.0 | 2.0 | 0.00 | 0.72 | 0.72 | 99 | 1016.6 |
| 20260904112843 | 66 | 223 | 0.0 | 1.0 | 0.00 | 0.72 | 0.72 | 99 | 1016.6 |
| 20260904112338 | 66 | 333 | 0.0 | 1.0 | 0.00 | 0.72 | 0.72 | 99 | 1016.2 |
| 20260904111834 | 65 | 235 | 0.0 | 2.0 | 0.00 | 0.72 | 0.72 | 99 | 1016.1 |
| 20260904111330 | 65 | 244 | 1.0 | 2.0 | 0.00 | 0.72 | 0.72 | 99 | 1016.0 |
| 20260904110825 | 65 | 193 | 0.0 | 1.0 | 0.00 | 0.72 | 0.72 | 99 | 1015.9 |
| 20260904110325 | 66 | 175 | 0.0 | 2.0 | 0.00 | 0.72 | 0.72 | 99 | 1016.1 |
| 20260904105824 | 65 | 154 | 0.0 | 1.0 | 0.00 | 0.72 | 0.72 | 99 | 1016.3 |
| 20260904105320 | 65 | 48 | 0.0 | 0.0 | 0.00 | 0.72 | 0.72 | 99 | 1016.2 |
| 20260904104814 | 65 | 205 | 0.0 | 1.0 | 0.00 | 0.72 | 0.72 | 99 | 1016.0 |
| 20260904104310 | 65 | 242 | 0.0 | 1.0 | 0.00 | 0.72 | 0.72 | 99 | 1016.1 |
| 20260904103807 | 65 | 326 | 0.0 | 1.0 | 0.00 | 0.72 | 0.72 | 99 | 1016.1 |
| 20260904103306 | 65 | 333 | 0.0 | 1.0 | 0.00 | 0.72 | 0.72 | 99 | 1016.0 |
| 20260904102801 | 66 | 19 | 0.0 | 2.0 | 0.00 | 0.72 | 0.72 | 99 | 1016.2 |
| 20260904102258 | 66 | 15 | 0.0 | 1.0 | 0.00 | 0.72 | 0.72 | 99 | 1016.1 |
| 20260904101753 | 66 | 157 | 0.0 | 0.0 | 0.00 | 0.72 | 0.72 | 99 | 1016.1 |
| 20260904101249 | 66 | 44 | 0.0 | 2.0 | 0.00 | 0.72 | 0.72 | 99 | 1015.9 |
| 20260904100744 | 66 | 258 | 0.0 | 2.0 | 0.00 | 0.72 | 0.72 | 99 | 1015.9 |
| 20260904100241 | 66 | 255 | 0.0 | 2.0 | 0.00 | 0.72 | 0.72 | 99 | 1015.8 |
| 20260904095741 | 66 | 269 | 0.0 | 2.0 | 0.00 | 0.72 | 0.72 | 99 | 1015.8 |
| 20260904095241 | 66 | 266 | 0.0 | 1.0 | 0.00 | 0.72 | 0.72 | 99 | 1015.6 |
| 20260904094736 | 66 | 327 | 0.0 | 2.0 | 0.00 | 0.72 | 0.72 | 99 | 1015.4 |
| 20260904094231 | 66 | 297 | 0.0 | 1.0 | 0.00 | 0.72 | 0.72 | 99 | 1015.6 |
| 20260904093728 | 66 | 230 | 0.0 | 1.0 | 0.00 | 0.72 | 0.72 | 99 | 1015.5 |
| 20260904093227 | 66 | 142 | 0.0 | 1.0 | 0.00 | 0.72 | 0.72 | 99 | 1015.8 |
| 20260904092723 | 66 | 269 | 0.0 | 1.0 | 0.00 | 0.72 | 0.72 | 99 | 1015.7 |
| 20260904092219 | 66 | 212 | 0.0 | 2.0 | 0.00 | 0.72 | 0.72 | 99 | 1015.8 |
| 20260904091715 | 66 | 266 | 1.0 | 2.0 | 0.00 | 0.72 | 0.72 | 99 | 1015.9 |
| 20260904091210 | 66 | 262 | 1.0 | 2.0 | 0.00 | 0.72 | 0.72 | 99 | 1015.9 |
| 20260904090705 | 66 | 250 | 1.0 | 3.0 | 0.00 | 0.72 | 0.72 | 99 | 1015.9 |
| 20260904090201 | 66 | 243 | 1.0 | 2.0 | 0.00 | 0.72 | 0.72 | 99 | 1015.8 |
| 20260904085655 | 66 | 217 | 0.0 | 1.0 | 0.00 | 0.72 | 0.72 | 99 | 1015.8 |
| 20260904085150 | 66 | 129 | 0.0 | 1.0 | 0.00 | 0.72 | 0.72 | 99 | 1016.0 |
| 20260904084645 | 66 | 212 | 0.0 | 2.0 | 0.00 | 0.72 | 0.72 | 99 | 1015.9 |
| 20260904084142 | 66 | 351 | 0.0 | 2.0 | 0.00 | 0.72 | 0.72 | 99 | 1015.7 |
| 20260904083638 | 66 | 343 | 1.0 | 2.0 | 0.00 | 0.72 | 0.72 | 99 | 1015.8 |
| 20260904083134 | 66 | 353 | 1.0 | 2.0 | 0.00 | 0.72 | 0.72 | 99 | 1015.9 |
| 20260904082628 | 66 | 326 | 0.0 | 2.0 | 0.00 | 0.72 | 0.72 | 99 | 1015.8 |
| 20260904082124 | 66 | 313 | 1.0 | 2.0 | 0.00 | 0.72 | 0.72 | 99 | 1015.7 |
| 20260904081619 | 66 | 337 | 0.0 | 2.0 | 0.00 | 0.72 | 0.72 | 99 | 1015.8 |
| 20260904081114 | 66 | 255 | 0.0 | 3.0 | 0.00 | 0.72 | 0.72 | 99 | 1015.9 |
| 20260904080610 | 66 | 236 | 0.0 | 2.0 | 0.00 | 0.72 | 0.72 | 99 | 1015.8 |
| 20260904080106 | 66 | 256 | 0.0 | 3.0 | 0.00 | 0.72 | 0.72 | 99 | 1015.8 |
| 20260904075601 | 66 | 251 | 1.0 | 2.0 | 0.00 | 0.72 | 0.72 | 99 | 1015.5 |
| 20260904075056 | 67 | 225 | 1.0 | 3.0 | 0.00 | 0.72 | 0.72 | 99 | 1015.5 |
| 20260904074555 | 66 | 189 | 0.0 | 3.0 | 0.00 | 0.72 | 0.72 | 99 | 1015.6 |
| 20260904074050 | 66 | 269 | 0.0 | 2.0 | 0.00 | 0.72 | 0.72 | 99 | 1015.5 |
| 20260904073545 | 66 | 252 | 1.0 | 2.0 | 0.00 | 0.72 | 0.72 | 99 | 1015.4 |
| 20260904073041 | 66 | 333 | 0.0 | 2.0 | 0.00 | 0.72 | 0.72 | 99 | 1015.8 |
| 20260904072536 | 66 | 230 | 0.0 | 1.0 | 0.00 | 0.72 | 0.72 | 99 | 1015.6 |
| 20260904072031 | 67 | 252 | 1.0 | 1.0 | 0.00 | 0.72 | 0.72 | 99 | 1015.7 |
| 20260904071526 | 67 | 237 | 0.0 | 2.0 | 0.00 | 0.72 | 0.72 | 99 | 1015.7 |
| 20260904071022 | 67 | 225 | 1.0 | 3.0 | 0.00 | 0.72 | 0.72 | 99 | 1015.8 |
| 20260904070521 | 67 | 245 | 0.0 | 3.0 | 0.00 | 0.72 | 0.72 | 99 | 1015.6 |
| 20260904070016 | 67 | 269 | 0.0 | 2.0 | 0.00 | 0.72 | 0.72 | 99 | 1015.6 |
| 20260904065511 | 67 | 281 | 3.0 | 5.0 | 0.00 | 0.72 | 0.72 | 99 | 1015.7 |
| 20260904065007 | 67 | 263 | 2.0 | 3.0 | 0.00 | 0.72 | 0.72 | 99 | 1015.5 |
| 20260904064503 | 67 | 212 | 0.0 | 3.0 | 0.00 | 0.72 | 0.72 | 99 | 1015.6 |
| 20260904064003 | 67 | 300 | 1.0 | 2.0 | 0.00 | 0.72 | 0.72 | 99 | 1015.7 |
| 20260904063459 | 67 | 292 | 2.0 | 3.0 | 0.00 | 0.72 | 0.72 | 99 | 1015.9 |
| 20260904062954 | 67 | 259 | 1.0 | 3.0 | 0.00 | 0.72 | 0.72 | 99 | 1015.9 |
| 20260904062450 | 67 | 249 | 1.0 | 3.0 | 0.00 | 0.72 | 0.72 | 99 | 1015.5 |
| 20260904061945 | 67 | 330 | 0.0 | 5.0 | 0.00 | 0.72 | 0.72 | 99 | 1016.0 |
| 20260904061442 | 67 | 269 | 0.0 | 6.0 | 0.00 | 0.72 | 0.72 | 99 | 1015.9 |
| 20260904060937 | 67 | 283 | 3.0 | 3.0 | 0.00 | 0.72 | 0.72 | 99 | 1015.9 |
| 20260904060433 | 67 | 276 | 2.0 | 5.0 | 0.00 | 0.72 | 0.72 | 99 | 1016.1 |
| 20260904055929 | 67 | 251 | 0.0 | 3.0 | 0.00 | 0.72 | 0.72 | 99 | 1016.2 |
| 20260904055424 | 67 | 252 | 1.0 | 4.0 | 0.00 | 0.72 | 0.72 | 99 | 1015.8 |
| 20260904054920 | 67 | 271 | 3.0 | 3.0 | 0.00 | 0.72 | 0.72 | 99 | 1016.0 |
| 20260904054415 | 67 | 228 | 0.0 | 3.0 | 0.09 | 0.72 | 0.72 | 99 | 1016.2 |
| 20260904053911 | 67 | 224 | 0.0 | 6.0 | 0.24 | 0.72 | 0.72 | 99 | 1016.8 |
| 20260904053410 | 67 | 236 | 1.0 | 3.0 | 0.35 | 0.70 | 0.70 | 99 | 1016.7 |
| 20260904052906 | 67 | 299 | 3.0 | 6.0 | 0.83 | 0.67 | 0.67 | 99 | 1017.1 |
| 20260904052402 | 67 | 215 | 0.0 | 3.0 | 3.31 | 0.61 | 0.61 | 99 | 1016.5 |
| 20260904051859 | 67 | 240 | 2.0 | 5.0 | 3.00 | 0.50 | 0.50 | 99 | 1016.8 |
| 20260904051354 | 68 | 300 | 3.0 | 5.0 | 0.17 | 0.03 | 0.03 | 99 | 1017.5 |
| 20260904050848 | 68 | 357 | 5.0 | 7.0 | 0.00 | 0.00 | 0.00 | 99 | 1016.4 |
| 20260904050345 | 67 | 359 | 5.0 | 5.0 | 0.00 | 0.00 | 0.00 | 99 | 1015.9 |
| 20260904045840 | 67 | 353 | 0.0 | 3.0 | 0.00 | 0.00 | 0.00 | 99 | 1015.3 |
| 20260904045334 | 67 | 26 | 0.0 | 2.0 | 0.00 | 0.00 | 0.00 | 99 | 1015.3 |
| 20260904044829 | 67 | 246 | 0.0 | 3.0 | 0.00 | 0.00 | 0.00 | 99 | 1015.4 |
| 20260904044325 | 67 | 261 | 2.0 | 3.0 | 0.00 | 0.00 | 0.00 | 99 | 1015.1 |
| 20260904043821 | 67 | 258 | 2.0 | 3.0 | 0.00 | 0.00 | 0.00 | 99 | 1015.5 |
| 20260904043317 | 67 | 245 | 0.0 | 3.0 | 0.00 | 0.00 | 0.00 | 99 | 1015.5 |
| 20260904042812 | 67 | 246 | 2.0 | 3.0 | 0.00 | 0.00 | 0.00 | 99 | 1015.7 |
| 20260904042309 | 67 | 249 | 3.0 | 5.0 | 0.00 | 0.00 | 0.00 | 99 | 1015.6 |
| 20260904041809 | 68 | 243 | 2.0 | 4.0 | 0.00 | 0.00 | 0.00 | 99 | 1015.5 |
| 20260904041305 | 68 | 255 | 0.0 | 2.0 | 0.00 | 0.00 | 0.00 | 99 | 1015.4 |
| 20260904040800 | 68 | 343 | 0.0 | 4.0 | 0.00 | 0.00 | 0.00 | 99 | 1015.5 |
| 20260904040256 | 68 | 244 | 1.0 | 2.0 | 0.00 | 0.00 | 0.00 | 99 | 1015.5 |
| 20260904035752 | 68 | 242 | 3.0 | 5.0 | 0.00 | 1.80 | 1.80 | 99 | 1015.9 |
| 20260904035247 | 68 | 254 | 2.0 | 3.0 | 0.00 | 1.80 | 1.80 | 99 | 1015.6 |
| 20260904034746 | 68 | 261 | 2.0 | 3.0 | 0.00 | 1.80 | 1.80 | 99 | 1015.6 |
| 20260904034242 | 68 | 319 | 1.0 | 5.0 | 0.00 | 1.80 | 1.80 | 99 | 1015.8 |
| 20260904033737 | 68 | 237 | 3.0 | 4.0 | 0.00 | 1.80 | 1.80 | 99 | 1015.6 |
| 20260904033234 | 68 | 52 | 0.0 | 4.0 | 0.00 | 1.80 | 1.80 | 99 | 1015.8 |
| 20260904032729 | 68 | 240 | 3.0 | 4.0 | 0.00 | 1.80 | 1.80 | 99 | 1015.8 |
| 20260904032228 | 68 | 249 | 2.0 | 4.0 | 0.00 | 1.80 | 1.80 | 99 | 1016.1 |
| 20260904031723 | 68 | 261 | 0.0 | 3.0 | 0.00 | 1.80 | 1.80 | 99 | 1015.9 |
| 20260904031218 | 68 | 230 | 1.0 | 5.0 | 0.00 | 1.80 | 1.80 | 99 | 1015.9 |
| 20260904030714 | 68 | 239 | 3.0 | 5.0 | 0.00 | 1.80 | 1.80 | 99 | 1015.9 |
| 20260904030209 | 68 | 272 | 2.0 | 4.0 | 0.00 | 1.80 | 1.80 | 99 | 1015.9 |
| 20260904025706 | 68 | 269 | 4.0 | 6.0 | 0.00 | 1.80 | 1.80 | 99 | 1015.9 |
| 20260904025201 | 68 | 258 | 0.0 | 5.0 | 0.00 | 1.80 | 1.80 | 99 | 1015.8 |
| 20260904024656 | 68 | 340 | 0.0 | 4.0 | 0.00 | 1.80 | 1.80 | 99 | 1016.0 |
| 20260904024151 | 68 | 252 | 3.0 | 6.0 | 0.00 | 1.80 | 1.80 | 99 | 1016.1 |
| 20260904023647 | 68 | 60 | 0.0 | 3.0 | 0.00 | 1.80 | 1.80 | 99 | 1016.3 |
| 20260904023143 | 68 | 310 | 0.0 | 4.0 | 0.00 | 1.80 | 1.80 | 99 | 1016.2 |
| 20260904022643 | 68 | 237 | 3.0 | 5.0 | 0.00 | 1.80 | 1.80 | 99 | 1016.3 |
| 20260904022140 | 68 | 257 | 2.0 | 4.0 | 0.00 | 1.80 | 1.80 | 99 | 1016.4 |
| 20260904021630 | 68 | 253 | 1.0 | 3.0 | 0.00 | 1.80 | 1.80 | 99 | 1016.4 |
| 20260904021125 | 68 | 260 | 0.0 | 1.0 | 0.00 | 1.80 | 1.80 | 99 | 1016.4 |
| 20260904020621 | 68 | 242 | 0.0 | 0.0 | 0.00 | 1.80 | 1.80 | 99 | 1016.3 |
| 20260904020115 | 68 | 249 | 1.0 | 2.0 | 0.00 | 1.80 | 1.80 | 99 | 1016.8 |
| 20260904015615 | 68 | 32 | 0.0 | 0.0 | 0.00 | 1.80 | 1.80 | 99 | 1016.6 |
| 20260904015114 | 68 | 15 | 0.0 | 0.0 | 0.00 | 1.80 | 1.80 | 99 | 1016.6 |
| 20260904014608 | 68 | 322 | 0.0 | 1.0 | 0.00 | 1.80 | 1.80 | 99 | 1016.4 |
| 20260904014104 | 68 | 33 | 1.0 | 3.0 | 0.00 | 1.80 | 1.80 | 99 | 1016.2 |
| 20260904013601 | 68 | 237 | 1.0 | 2.0 | 0.00 | 1.80 | 1.80 | 99 | 1016.3 |
| 20260904013056 | 68 | 124 | 0.0 | 2.0 | 0.00 | 1.80 | 1.80 | 99 | 1016.4 |
| 20260904012556 | 68 | 72 | 1.0 | 3.0 | 0.00 | 1.80 | 1.80 | 99 | 1016.4 |
| 20260904012056 | 68 | 212 | 0.0 | 1.0 | 0.00 | 1.80 | 1.80 | 99 | 1016.6 |
| 20260904011550 | 69 | 217 | 0.0 | 2.0 | 0.00 | 1.80 | 1.80 | 99 | 1016.7 |
| 20260904011045 | 69 | 121 | 0.0 | 2.0 | 0.00 | 1.80 | 1.80 | 99 | 1016.1 |
| 20260904010541 | 69 | 46 | 1.0 | 2.0 | 0.00 | 1.80 | 1.80 | 99 | 1016.3 |
| 20260904010038 | 69 | 53 | 0.0 | 3.0 | 0.02 | 1.80 | 1.80 | 99 | 1016.1 |
| 20260904005537 | 69 | 12 | 3.0 | 3.0 | 0.09 | 1.80 | 1.80 | 99 | 1015.9 |
| 20260904005037 | 69 | 23 | 3.0 | 3.0 | 0.07 | 1.79 | 1.79 | 99 | 1016.4 |
| 20260904004533 | 69 | 55 | 0.0 | 0.0 | 0.05 | 1.79 | 1.79 | 99 | 1017.7 |
| 20260904004028 | 69 | 43 | 1.0 | 2.0 | 0.05 | 1.78 | 1.78 | 99 | 1018.3 |
| 20260904003525 | 69 | 323 | 1.0 | 3.0 | 0.05 | 1.78 | 1.78 | 99 | 1018.4 |
| 20260904003020 | 69 | 301 | 2.0 | 3.0 | 0.12 | 1.77 | 1.77 | 99 | 1018.6 |
| 20260904002516 | 69 | 5 | 3.0 | 9.0 | 0.52 | 1.76 | 1.76 | 99 | 1018.3 |
| 20260904002015 | 69 | 5 | 4.0 | 12.0 | 1.63 | 1.74 | 1.74 | 99 | 1017.6 |
| 20260904001511 | 69 | 355 | 6.0 | 13.0 | 1.77 | 1.66 | 1.66 | 99 | 1017.3 |
| 20260904001010 | 69 | 299 | 4.0 | 10.0 | 0.24 | 1.40 | 1.40 | 99 | 1018.0 |
| 20260904000509 | 68 | 341 | 6.0 | 7.0 | 0.00 | 1.36 | 1.36 | 99 | 1017.0 |
| 20260904000006 | 68 | 333 | 0.0 | 2.0 | 0.00 | 1.36 | 1.36 | 99 | 1015.9 |
| 20260903235501 | 68 | 38 | 0.0 | 0.0 | 0.00 | 1.36 | 1.36 | 99 | 1015.7 |
| 20260903235000 | 68 | 77 | 1.0 | 2.0 | 0.00 | 1.36 | 1.36 | 99 | 1015.7 |
| 20260903234456 | 69 | 99 | 2.0 | 3.0 | 0.00 | 1.36 | 1.36 | 99 | 1015.7 |
| 20260903233952 | 69 | 74 | 1.0 | 2.0 | 0.02 | 1.36 | 1.36 | 99 | 1016.0 |
| 20260903233448 | 69 | 25 | 0.0 | 1.0 | 0.02 | 1.36 | 1.36 | 99 | 1016.2 |
| 20260903232943 | 69 | 336 | 0.0 | 3.0 | 0.07 | 1.36 | 1.36 | 99 | 1016.3 |
| 20260903232438 | 69 | 275 | 2.0 | 3.0 | 0.07 | 1.36 | 1.36 | 99 | 1016.5 |
| 20260903231938 | 68 | 309 | 0.0 | 1.0 | 0.00 | 1.35 | 1.35 | 99 | 1016.4 |
| 20260903231434 | 69 | 269 | 0.0 | 2.0 | 0.00 | 1.35 | 1.35 | 99 | 1016.4 |
| 20260903230927 | 69 | 242 | 2.0 | 5.0 | 0.02 | 1.35 | 1.35 | 99 | 1017.1 |
| 20260903230423 | 69 | 246 | 4.0 | 6.0 | 0.05 | 1.35 | 1.35 | 99 | 1016.5 |
| 20260903225920 | 69 | 348 | 1.0 | 3.0 | 0.47 | 1.34 | 1.34 | 99 | 1015.9 |
| 20260903225415 | 69 | 354 | 0.0 | 5.0 | 0.50 | 1.34 | 1.34 | 99 | 1016.0 |
| 20260903224911 | 69 | 281 | 2.0 | 3.0 | 0.07 | 1.26 | 1.26 | 99 | 1016.6 |
| 20260903224407 | 69 | 44 | 0.0 | 2.0 | 0.31 | 1.26 | 1.26 | 99 | 1015.5 |
| 20260903223903 | 69 | 269 | 0.0 | 3.0 | 0.40 | 1.24 | 1.24 | 99 | 1015.8 |
| 20260903223401 | 69 | 263 | 1.0 | 5.0 | 0.26 | 1.20 | 1.20 | 99 | 1016.2 |
| 20260903222856 | 69 | 311 | 0.0 | 3.0 | 0.31 | 1.18 | 1.18 | 99 | 1016.6 |
| 20260903222356 | 69 | 164 | 1.0 | 4.0 | 0.12 | 1.14 | 1.14 | 99 | 1016.8 |
| 20260903221851 | 69 | 321 | 0.0 | 4.0 | 0.17 | 1.12 | 1.12 | 99 | 1016.5 |
| 20260903221349 | 69 | 246 | 0.0 | 3.0 | 0.17 | 1.11 | 1.11 | 99 | 1015.8 |
| 20260903220848 | 69 | 18 | 2.0 | 5.0 | 0.14 | 1.09 | 1.09 | 99 | 1015.9 |
| 20260903220342 | 69 | 347 | 3.0 | 8.0 | 0.28 | 1.09 | 1.09 | 99 | 1015.7 |
| 20260903215840 | 68 | 343 | 6.0 | 11.0 | 0.94 | 1.07 | 1.07 | 99 | 1015.9 |
| 20260903215337 | 68 | 351 | 6.0 | 11.0 | 1.32 | 1.03 | 1.03 | 99 | 1015.3 |
| 20260903214835 | 69 | 355 | 5.0 | 17.0 | 1.06 | 0.87 | 0.87 | 98 | 1015.3 |
| 20260903214332 | 70 | 2 | 8.0 | 15.0 | 0.35 | 0.75 | 0.75 | 94 | 1014.5 |
| 20260903213825 | 75 | 340 | 9.0 | 22.0 | 0.00 | 0.69 | 0.69 | 88 | 1015.3 |
| 20260903213321 | 82 | 278 | 3.0 | 3.0 | 0.00 | 0.69 | 0.69 | 84 | 1014.2 |
| 20260903212817 | 82 | 281 | 1.0 | 3.0 | 0.00 | 0.69 | 0.69 | 85 | 1014.4 |
| 20260903212314 | 82 | 252 | 0.0 | 2.0 | 0.00 | 0.69 | 0.69 | 86 | 1014.4 |
| 20260903211812 | 82 | 269 | 0.0 | 1.0 | 0.00 | 0.69 | 0.69 | 84 | 1014.0 |
| 20260903211309 | 83 | 256 | 0.0 | 2.0 | 0.00 | 0.69 | 0.69 | 83 | 1014.0 |
| 20260903210805 | 83 | 269 | 0.0 | 3.0 | 0.00 | 0.69 | 0.69 | 83 | 1014.5 |
| 20260903210300 | 82 | 261 | 2.0 | 2.0 | 0.00 | 0.69 | 0.69 | 84 | 1013.2 |
| 20260903205759 | 83 | 244 | 1.0 | 2.0 | 0.00 | 0.69 | 0.69 | 84 | 1013.1 |
| 20260903205259 | 83 | 250 | 1.0 | 2.0 | 0.00 | 0.69 | 0.69 | 84 | 1013.5 |
| 20260903204800 | 83 | 243 | 1.0 | 3.0 | 0.00 | 0.69 | 0.69 | 83 | 1013.6 |
| 20260903204256 | 83 | 243 | 2.0 | 3.0 | 0.00 | 0.69 | 0.69 | 83 | 1013.4 |
| 20260903203751 | 84 | 246 | 2.0 | 2.0 | 0.00 | 0.69 | 0.69 | 82 | 1013.6 |
| 20260903203247 | 84 | 234 | 2.0 | 4.0 | 0.00 | 0.69 | 0.69 | 81 | 1014.4 |
| 20260903202745 | 85 | 240 | 2.0 | 7.0 | 0.00 | 0.69 | 0.69 | 79 | 1014.4 |
| 20260903202242 | 85 | 246 | 2.0 | 3.0 | 0.00 | 0.69 | 0.69 | 79 | 1014.4 |
| 20260903201741 | 85 | 244 | 2.0 | 3.0 | 0.00 | 0.69 | 0.69 | 79 | 1014.2 |
| 20260903201236 | 87 | 251 | 2.0 | 5.0 | 0.00 | 0.69 | 0.69 | 75 | 1014.2 |
| 20260903200735 | 90 | 258 | 1.0 | 3.0 | 0.00 | 0.69 | 0.69 | 73 | 1014.0 |
| 20260903200231 | 90 | 269 | 1.0 | 4.0 | 0.00 | 0.69 | 0.69 | 68 | 1014.4 |
| 20260903195726 | 88 | 238 | 0.0 | 5.0 | 0.00 | 0.69 | 0.69 | 73 | 1014.2 |
| 20260903195222 | 87 | 293 | 0.0 | 3.0 | 0.00 | 0.69 | 0.69 | 74 | 1014.3 |
| 20260903194722 | 87 | 268 | 1.0 | 5.0 | 0.00 | 0.69 | 0.69 | 73 | 1014.2 |
| 20260903194218 | 87 | 248 | 2.0 | 5.0 | 0.00 | 0.69 | 0.69 | 72 | 1014.2 |
| 20260903193713 | 85 | 269 | 0.0 | 3.0 | 0.00 | 0.69 | 0.69 | 76 | 1014.5 |
| 20260903193214 | 85 | 280 | 0.0 | 5.0 | 0.00 | 0.69 | 0.69 | 76 | 1014.8 |
| 20260903192710 | 86 | 217 | 2.0 | 6.0 | 0.00 | 0.69 | 0.69 | 74 | 1014.9 |
| 20260903192206 | 87 | 291 | 4.0 | 7.0 | 0.00 | 0.69 | 0.69 | 72 | 1015.2 |
| 20260903191702 | 85 | 264 | 3.0 | 7.0 | 0.00 | 0.69 | 0.69 | 75 | 1015.4 |
| 20260903191202 | 87 | 253 | 3.0 | 4.0 | 0.00 | 0.69 | 0.69 | 72 | 1015.4 |
| 20260903190657 | 86 | 245 | 1.0 | 4.0 | 0.00 | 0.69 | 0.69 | 74 | 1015.5 |
| 20260903190156 | 86 | 252 | 2.0 | 5.0 | 0.00 | 0.69 | 0.69 | 75 | 1015.7 |
| 20260903185652 | 86 | 268 | 2.0 | 4.0 | 0.00 | 0.69 | 0.69 | 73 | 1015.8 |
| 20260903185146 | 86 | 233 | 3.0 | 4.0 | 0.00 | 0.69 | 0.69 | 74 | 1015.7 |
| 20260903184643 | 85 | 264 | 0.0 | 3.0 | 0.00 | 0.69 | 0.69 | 77 | 1015.9 |
| 20260903184139 | 85 | 245 | 5.0 | 6.0 | 0.00 | 0.69 | 0.69 | 74 | 1015.8 |
| 20260903183637 | 84 | 269 | 2.0 | 5.0 | 0.00 | 0.69 | 0.69 | 76 | 1015.8 |
| 20260903183132 | 84 | 282 | 5.0 | 9.0 | 0.00 | 0.69 | 0.69 | 75 | 1015.8 |
| 20260903182631 | 83 | 237 | 2.0 | 7.0 | 0.00 | 0.69 | 0.69 | 76 | 1016.0 |
| 20260903182128 | 83 | 243 | 2.0 | 5.0 | 0.00 | 0.69 | 0.69 | 76 | 1016.0 |
| 20260903181625 | 83 | 247 | 2.0 | 4.0 | 0.00 | 0.69 | 0.69 | 77 | 1016.1 |
| 20260903181120 | 82 | 221 | 3.0 | 11.0 | 0.00 | 0.69 | 0.69 | 78 | 1016.2 |
| 20260903180616 | 82 | 257 | 3.0 | 7.0 | 0.00 | 0.69 | 0.69 | 78 | 1016.2 |
| 20260903180110 | 82 | 259 | 3.0 | 4.0 | 0.00 | 0.69 | 0.69 | 80 | 1016.3 |
| 20260903175609 | 82 | 260 | 2.0 | 5.0 | 0.00 | 0.69 | 0.69 | 82 | 1016.5 |
| 20260903175109 | 82 | 266 | 2.0 | 5.0 | 0.00 | 0.69 | 0.69 | 82 | 1016.3 |
| 20260903174604 | 82 | 265 | 6.0 | 9.0 | 0.00 | 0.69 | 0.69 | 83 | 1016.5 |
| 20260903174058 | 81 | 248 | 3.0 | 7.0 | 0.00 | 0.69 | 0.69 | 84 | 1016.5 |
| 20260903173553 | 81 | 320 | 2.0 | 5.0 | 0.00 | 0.69 | 0.69 | 84 | 1016.5 |
| 20260903173050 | 80 | 243 | 0.0 | 4.0 | 0.00 | 0.69 | 0.69 | 86 | 1016.6 |
| 20260903172549 | 80 | 220 | 0.0 | 6.0 | 0.00 | 0.69 | 0.69 | 87 | 1016.7 |
| 20260903172045 | 80 | 284 | 2.0 | 3.0 | 0.00 | 0.69 | 0.69 | 87 | 1016.7 |
| 20260903171540 | 79 | 271 | 3.0 | 5.0 | 0.00 | 0.69 | 0.69 | 88 | 1016.6 |
| 20260903171036 | 78 | 235 | 2.0 | 7.0 | 0.00 | 0.69 | 0.69 | 88 | 1016.8 |
| 20260903170534 | 78 | 217 | 0.0 | 7.0 | 0.00 | 0.69 | 0.69 | 89 | 1016.6 |
| 20260903170030 | 78 | 241 | 3.0 | 5.0 | 0.00 | 0.69 | 0.69 | 89 | 1016.7 |
| 20260903165527 | 78 | 271 | 3.0 | 9.0 | 0.00 | 0.69 | 0.69 | 90 | 1016.7 |
| 20260903165023 | 77 | 265 | 0.0 | 6.0 | 0.00 | 0.69 | 0.69 | 91 | 1016.8 |
| 20260903164518 | 76 | 248 | 3.0 | 5.0 | 0.00 | 0.69 | 0.69 | 93 | 1016.8 |
| 20260903164013 | 75 | 262 | 0.0 | 6.0 | 0.00 | 0.69 | 0.69 | 96 | 1016.8 |
| 20260903163509 | 73 | 244 | 2.0 | 6.0 | 0.00 | 0.69 | 0.69 | 99 | 1017.0 |
| 20260903163005 | 73 | 244 | 3.0 | 6.0 | 0.00 | 0.69 | 0.69 | 99 | 1016.8 |
| 20260903162501 | 73 | 255 | 3.0 | 8.0 | 0.00 | 0.69 | 0.69 | 99 | 1017.1 |
| 20260903161956 | 73 | 273 | 2.0 | 4.0 | 0.00 | 0.69 | 0.69 | 99 | 1017.1 |
| 20260903161451 | 72 | 261 | 2.0 | 5.0 | 0.00 | 0.69 | 0.69 | 99 | 1017.0 |
| 20260903160948 | 73 | 205 | 0.0 | 4.0 | 0.00 | 0.69 | 0.69 | 99 | 1017.1 |
| 20260903160446 | 72 | 329 | 0.0 | 3.0 | 0.00 | 0.69 | 0.69 | 99 | 1017.3 |
| 20260903155945 | 71 | 256 | 2.0 | 3.0 | 0.00 | 0.69 | 0.69 | 99 | 1017.3 |
| 20260903155440 | 71 | 232 | 1.0 | 6.0 | 0.00 | 0.69 | 0.69 | 99 | 1017.3 |
| 20260903154936 | 71 | 259 | 3.0 | 3.0 | 0.00 | 0.69 | 0.69 | 99 | 1017.4 |